Flag for India Weather past 2 weeks in Maraimalai Nagar, Tamil Nadu, India

Now
81 °F

Fog.


Feels Like: 86 °F
Forecast: 76 / 89 °F
Wind: 2 mph from Southwest

Location: Madras / Minambakkam

Current Time: Feb 27, 2015 at 9:54:15 AM

Latest Report: Feb 27, 2015 at 8:40 AM


Visibility: 2 mi

Pressure: 29.86 "Hg

Humidity: 84%

Dew point: 75 °F

Location of Maraimalai NagarLocation

Historic Weather in Maraimalai Nagar — Graph

°F

Maraimalai Nagar temperature yesterday

Maximum temperature yesterday: 88 °F (at 12:40 PM)
Minimum temperature yesterday: 72 °F (at 2:40 AM)
Average temperature yesterday: 81 °F

Past Weeks' High & Low Weather Summary

 TemperatureHumidityPressure
High91 °F (Feb 15, 12:40 PM)100% (Feb 14, 7:40 AM)30.01 "Hg (Feb 14, 7:40 AM)
Low68 °F (Feb 25, 5:40 AM)27% (Feb 25, 12:40 PM)29.74 "Hg (Feb 26, 3:40 PM)
Average79 °F72%29.89 "Hg
* Reported Feb 12 7:40 AM — Feb 27 7:40 AM, Maraimalai Nagar, Weather by CustomWeather, © 2015

Note: Actual official high and low records may vary slightly from our data, if they occured in-between our weather recording intervals... More about our weather records

Advertising

Maraimalai Nagar weather history for previous 24 hours

 ConditionsComfort  
Time TempWeatherWind HumidityBarometerVisibility
7:40 AM
Fri, Feb 27
77 °FFog.5 mph94%29.86 "Hg1 mi
6:40 AM75 °FFog.No wind94%29.83 "Hg1 mi
4:40 AM75 °FFog.3 mph94%29.77 "Hg3 mi
3:40 AM77 °FPassing clouds.3 mph89%29.80 "Hg4 mi
2:40 AM79 °FPassing clouds.5 mph89%29.80 "Hg4 mi
1:40 AM81 °FPassing clouds.3 mph84%29.80 "Hg4 mi
12:40 AM81 °FPassing clouds.5 mph84%29.83 "Hg4 mi
11:40 PM
Thu, Feb 26
81 °FPassing clouds.7 mph84%29.83 "Hg4 mi
10:40 PM81 °FPassing clouds.9 mph84%29.86 "Hg4 mi
9:40 PM81 °FPassing clouds.9 mph84%29.83 "Hg4 mi
8:40 PM81 °FPassing clouds.12 mph79%29.83 "Hg4 mi
7:40 PM81 °FPassing clouds.9 mph79%29.80 "Hg4 mi
6:40 PM81 °FPassing clouds.12 mph79%29.77 "Hg4 mi
5:40 PM82 °FPassing clouds.12 mph74%29.77 "Hg5 mi
4:40 PM84 °FPassing clouds.12 mph70%29.74 "Hg5 mi
3:40 PM86 °FPassing clouds.12 mph62%29.74 "HgN/A
2:40 PM88 °FPassing clouds.10 mph55%29.77 "HgN/A
1:40 PM88 °FScattered clouds.9 mph55%29.80 "HgN/A
12:40 PM88 °FScattered clouds.12 mph55%29.83 "HgN/A
11:40 AM86 °FScattered clouds.7 mph59%29.86 "HgN/A
10:40 AM86 °FScattered clouds.7 mph59%29.89 "Hg4 mi
9:40 AM82 °FScattered clouds.3 mph66%29.89 "Hg2 mi
Weather by CustomWeather, © 2015

See weather overviewHow to use our weather pages